FDX0015 PANC-RJTT

Flight info

Callsign FDX0015
Flight time N/A
Altitude 34000
Route NODLE R220 NICHO M523 HIRAM DCT NOLTI R220 IXE Y88 DAIGO Y10 GODIN
Aircraft B77L/H-SDE1E2E3FGHIJ2J3J4J5M1RWXY/LB1D1

Departure

Time N/A
Airport Ted Stevens Anchorage International Airport (PANC)

Arrival

Time 2026-05-01 10:53
Airport Tokyo Haneda International Airport (RJTT)
Time Latitude Longitude Altitude Speed Heading
2026-05-01 07:23 50.30900 160.64148 38070 ft 454 kts 243°
2026-05-01 07:24 50.25467 160.52077 38075 ft 452 kts 243°
2026-05-01 07:24 50.21848 160.44064 38102 ft 451 kts 243°
2026-05-01 07:25 50.18217 160.36063 38065 ft 452 kts 243°
2026-05-01 07:25 50.14561 160.28084 38085 ft 452 kts 243°
2026-05-01 07:26 50.10899 160.20119 38097 ft 452 kts 243°
2026-05-01 07:26 50.07236 160.12167 38094 ft 452 kts 243°
2026-05-01 07:27 50.03566 160.04219 38102 ft 452 kts 243°
2026-05-01 07:27 49.99894 159.96290 38100 ft 451 kts 243°
2026-05-01 07:28 49.96223 159.88387 38103 ft 451 kts 243°
2026-05-01 07:28 49.92555 159.80515 38108 ft 450 kts 243°
2026-05-01 07:29 49.88882 159.72653 38114 ft 450 kts 243°
2026-05-01 07:29 49.85208 159.64812 38075 ft 449 kts 243°
2026-05-01 07:30 49.81539 159.57009 38107 ft 447 kts 243°
2026-05-01 07:30 49.77875 159.49235 38130 ft 446 kts 243°
2026-05-01 07:31 49.74218 159.41493 38128 ft 446 kts 243°
2026-05-01 07:32 49.64977 159.22353 38127 ft 445 kts 242°
2026-05-01 07:33 49.59360 159.10972 38135 ft 444 kts 242°
2026-05-01 07:33 49.53761 158.99631 38135 ft 443 kts 242°
2026-05-01 07:34 49.48170 158.88348 38131 ft 441 kts 242°
2026-05-01 07:35 49.44449 158.80866 38138 ft 440 kts 242°
2026-05-01 07:35 49.40732 158.73411 38138 ft 439 kts 242°
2026-05-01 07:36 49.37020 158.65986 38143 ft 438 kts 242°
2026-05-01 07:36 49.33305 158.58578 38116 ft 437 kts 242°
2026-05-01 07:37 49.27754 158.47551 38157 ft 435 kts 242°
2026-05-01 07:37 49.24063 158.40240 38156 ft 434 kts 242°
2026-05-01 07:38 49.20374 158.32952 38160 ft 433 kts 242°
2026-05-01 07:39 49.14834 158.22047 38149 ft 432 kts 241°
2026-05-01 07:39 49.09305 158.11209 38159 ft 431 kts 241°
2026-05-01 07:40 49.05616 158.04001 38163 ft 431 kts 241°
2026-05-01 07:40 49.01921 157.96801 38156 ft 431 kts 241°
2026-05-01 07:41 48.98222 157.89612 38160 ft 431 kts 241°
2026-05-01 07:42 48.92684 157.78886 38144 ft 432 kts 241°
2026-05-01 07:42 48.88970 157.71718 38161 ft 432 kts 241°
2026-05-01 07:43 48.85251 157.64559 38170 ft 432 kts 241°
2026-05-01 07:43 48.79662 157.53837 38161 ft 431 kts 240°
2026-05-01 07:44 48.72199 157.39585 38167 ft 432 kts 240°
2026-05-01 07:45 48.68459 157.32472 38173 ft 432 kts 240°
2026-05-01 07:45 48.64713 157.25364 38135 ft 432 kts 240°
2026-05-01 07:46 48.60966 157.18277 38160 ft 431 kts 240°
2026-05-01 07:47 48.55338 157.07664 38178 ft 432 kts 240°
2026-05-01 07:47 48.51580 157.00601 38174 ft 432 kts 240°
2026-05-01 07:48 48.45936 156.90026 38162 ft 431 kts 240°
2026-05-01 07:48 48.42173 156.83001 38164 ft 431 kts 240°
2026-05-01 07:49 48.36519 156.72477 38168 ft 431 kts 240°
2026-05-01 07:50 48.32742 156.65470 38167 ft 431 kts 239°
2026-05-01 07:50 48.27076 156.54996 38156 ft 430 kts 239°
2026-05-01 07:51 48.23324 156.48080 38164 ft 430 kts 239°
2026-05-01 07:52 48.17653 156.37662 38157 ft 430 kts 239°
2026-05-01 07:52 48.13868 156.30731 38116 ft 430 kts 239°
2026-05-01 07:53 48.08198 156.20382 38162 ft 428 kts 239°
2026-05-01 07:53 48.04418 156.13503 38164 ft 428 kts 239°
2026-05-01 07:55 47.94948 155.96349 38157 ft 427 kts 239°
2026-05-01 07:56 47.85508 155.79358 38158 ft 427 kts 238°
2026-05-01 07:57 47.79819 155.69168 38157 ft 427 kts 238°
2026-05-01 07:58 47.72256 155.55687 38153 ft 423 kts 239°
2026-05-01 07:59 47.64726 155.42327 38149 ft 421 kts 239°
2026-05-01 08:00 47.53476 155.22488 38152 ft 417 kts 239°
2026-05-01 08:01 47.46626 155.10479 38149 ft 417 kts 239°
2026-05-01 08:02 47.41019 155.00691 38130 ft 415 kts 239°
2026-05-01 08:03 47.35426 154.90961 38128 ft 414 kts 239°
2026-05-01 08:03 47.29837 154.81270 38130 ft 413 kts 239°
2026-05-01 08:04 47.22374 154.68385 38125 ft 413 kts 239°
2026-05-01 08:05 47.16767 154.58747 38126 ft 414 kts 239°
2026-05-01 08:06 47.11149 154.49123 38091 ft 414 kts 239°
2026-05-01 08:07 47.03692 154.36408 38113 ft 409 kts 239°
2026-05-01 08:08 46.98146 154.26987 38108 ft 405 kts 240°
2026-05-01 08:09 46.90842 154.14628 38101 ft 400 kts 240°
2026-05-01 08:09 46.87206 154.08496 38105 ft 398 kts 240°
2026-05-01 08:10 46.79964 153.96319 38109 ft 396 kts 240°
2026-05-01 08:11 46.72732 153.84218 38096 ft 395 kts 241°
2026-05-01 08:12 46.67325 153.75204 38100 ft 393 kts 241°
2026-05-01 08:13 46.61924 153.66229 38094 ft 392 kts 242°
2026-05-01 08:13 46.56552 153.57339 38082 ft 388 kts 242°
2026-05-01 08:14 46.53003 153.51481 38097 ft 385 kts 242°
2026-05-01 08:14 46.49499 153.45705 38083 ft 382 kts 242°
2026-05-01 08:15 46.44235 153.37049 38094 ft 381 kts 242°
2026-05-01 08:16 46.40730 153.31301 38079 ft 380 kts 242°
2026-05-01 08:16 46.37226 153.25566 38090 ft 380 kts 242°
2026-05-01 08:17 46.33711 153.19825 38086 ft 381 kts 242°
2026-05-01 08:17 46.30186 153.14080 38086 ft 382 kts 242°
2026-05-01 08:18 46.26649 153.08328 38079 ft 383 kts 242°
2026-05-01 08:19 46.19545 152.96841 38093 ft 384 kts 242°
2026-05-01 08:19 46.15956 152.91121 38093 ft 385 kts 242°
2026-05-01 08:20 46.12358 152.85401 38091 ft 385 kts 242°
2026-05-01 08:20 46.08756 152.79680 38069 ft 385 kts 241°
2026-05-01 08:21 46.05167 152.73992 38073 ft 383 kts 241°
2026-05-01 08:21 46.01598 152.68347 38073 ft 380 kts 241°
2026-05-01 08:22 45.98047 152.62739 38076 ft 378 kts 241°
2026-05-01 08:22 45.94513 152.57165 38078 ft 377 kts 241°
2026-05-01 08:23 45.90986 152.51614 38060 ft 375 kts 240°
2026-05-01 08:23 45.87469 152.46091 38068 ft 374 kts 240°
2026-05-01 08:24 45.83960 152.40591 38079 ft 374 kts 240°
2026-05-01 08:24 45.80474 152.35137 38070 ft 374 kts 240°
2026-05-01 08:25 45.76961 152.29652 38076 ft 374 kts 240°
2026-05-01 08:25 45.73442 152.24170 38068 ft 373 kts 239°
2026-05-01 08:26 45.69932 152.18716 38072 ft 372 kts 239°
2026-05-01 08:26 45.66426 152.13278 38070 ft 371 kts 239°
2026-05-01 08:27 45.62927 152.07859 38070 ft 371 kts 239°
2026-05-01 08:27 45.59430 152.02455 38068 ft 370 kts 239°
2026-05-01 08:28 45.55937 151.97067 38068 ft 370 kts 239°
2026-05-01 08:28 45.52439 151.91682 38068 ft 370 kts 239°
2026-05-01 08:29 45.48943 151.86311 38060 ft 370 kts 239°
2026-05-01 08:29 45.45443 151.80944 38071 ft 370 kts 239°
2026-05-01 08:30 45.41942 151.75586 38070 ft 370 kts 239°
2026-05-01 08:30 45.38441 151.70239 38068 ft 368 kts 238°
2026-05-01 08:31 45.34950 151.64920 38073 ft 367 kts 238°
2026-05-01 08:31 45.31468 151.59626 38071 ft 366 kts 238°
2026-05-01 08:32 45.27994 151.54350 38065 ft 365 kts 238°
2026-05-01 08:32 45.24525 151.49092 38068 ft 365 kts 238°
2026-05-01 08:33 45.21061 151.43853 38058 ft 363 kts 237°
2026-05-01 08:33 45.17605 151.38634 38066 ft 363 kts 237°
2026-05-01 08:34 45.14151 151.33430 38063 ft 362 kts 237°
2026-05-01 08:34 45.10700 151.28239 38053 ft 362 kts 237°
2026-05-01 08:35 45.07246 151.23053 38049 ft 362 kts 236°
2026-05-01 08:35 45.03818 151.17916 38068 ft 361 kts 237°
2026-05-01 08:36 45.00364 151.12751 38066 ft 361 kts 237°
2026-05-01 08:36 44.96908 151.07591 38062 ft 361 kts 237°
2026-05-01 08:37 44.93449 151.02437 38063 ft 362 kts 236°
2026-05-01 08:37 44.89988 150.97290 38051 ft 362 kts 236°
2026-05-01 08:38 44.86526 150.92153 38050 ft 361 kts 236°
2026-05-01 08:38 44.83060 150.87018 38053 ft 361 kts 236°
2026-05-01 08:39 44.79595 150.81892 38061 ft 361 kts 236°
2026-05-01 08:39 44.76125 150.76772 38061 ft 361 kts 236°
2026-05-01 08:40 44.70919 150.69108 38051 ft 361 kts 235°
2026-05-01 08:40 44.67445 150.64001 38060 ft 362 kts 235°
2026-05-01 08:41 44.63963 150.58892 38055 ft 363 kts 235°
2026-05-01 08:41 44.60468 150.53777 38060 ft 363 kts 235°
2026-05-01 08:42 44.56969 150.48665 38034 ft 364 kts 234°
2026-05-01 08:42 44.53463 150.43551 38051 ft 364 kts 234°
2026-05-01 08:43 44.49981 150.38483 38055 ft 364 kts 234°
2026-05-01 08:43 44.46463 150.33373 38052 ft 364 kts 234°
2026-05-01 08:44 44.42940 150.28263 38054 ft 364 kts 234°
2026-05-01 08:44 44.39416 150.23162 38035 ft 364 kts 234°
2026-05-01 08:45 44.35895 150.18076 38044 ft 365 kts 234°
2026-05-01 08:45 44.32364 150.12981 38055 ft 365 kts 234°
2026-05-01 08:46 44.28820 150.07878 38048 ft 366 kts 234°
2026-05-01 08:46 44.25267 150.02773 38051 ft 367 kts 234°
2026-05-01 08:47 44.21705 149.97666 38044 ft 367 kts 233°
2026-05-01 08:47 44.18141 149.92563 38042 ft 368 kts 233°
2026-05-01 08:48 44.14568 149.87457 38044 ft 368 kts 233°
2026-05-01 08:48 44.10992 149.82357 38044 ft 368 kts 233°
2026-05-01 08:49 44.07410 149.77257 38042 ft 368 kts 233°
2026-05-01 08:49 44.03830 149.72171 38040 ft 368 kts 232°
2026-05-01 08:50 44.00247 149.67089 38030 ft 368 kts 232°
2026-05-01 08:50 43.97269 149.62870 38037 ft 368 kts 232°
2026-05-01 08:51 43.93679 149.57794 38036 ft 369 kts 232°
2026-05-01 08:51 43.90084 149.52720 38035 ft 369 kts 232°
2026-05-01 08:52 43.86483 149.47648 38035 ft 369 kts 232°
2026-05-01 08:52 43.82876 149.42577 38036 ft 369 kts 232°
2026-05-01 08:53 43.79265 149.37510 38035 ft 370 kts 232°
2026-05-01 08:53 43.75653 149.32450 38036 ft 370 kts 232°
2026-05-01 08:54 43.72040 149.27396 38027 ft 369 kts 232°
2026-05-01 08:54 43.68422 149.22348 38034 ft 370 kts 232°
2026-05-01 08:55 43.64805 149.17309 38009 ft 370 kts 232°
2026-05-01 08:55 43.61177 149.12262 38015 ft 371 kts 232°
2026-05-01 08:56 43.57537 149.07208 38009 ft 371 kts 231°
2026-05-01 08:56 43.53891 149.02157 38019 ft 372 kts 231°
2026-05-01 08:57 43.50234 148.97098 38022 ft 373 kts 231°
2026-05-01 08:57 43.46589 148.92065 38018 ft 374 kts 231°
2026-05-01 08:58 43.42914 148.87002 38023 ft 374 kts 231°
2026-05-01 08:58 43.39236 148.81942 38018 ft 374 kts 231°
2026-05-01 08:59 43.35554 148.76887 38015 ft 374 kts 231°
2026-05-01 08:59 43.31879 148.71850 38011 ft 373 kts 231°
2026-05-01 09:00 43.28205 148.66820 37999 ft 373 kts 231°
2026-05-01 09:00 43.24525 148.61796 37991 ft 373 kts 230°
2026-05-01 09:01 43.20851 148.56788 38009 ft 373 kts 230°
2026-05-01 09:01 43.17162 148.51769 38010 ft 374 kts 230°
2026-05-01 09:02 43.13469 148.46753 38007 ft 374 kts 230°
2026-05-01 09:02 43.09766 148.41732 37984 ft 375 kts 230°
2026-05-01 09:03 43.06062 148.36718 37991 ft 375 kts 230°
2026-05-01 09:03 43.02356 148.31712 37994 ft 374 kts 230°
2026-05-01 09:04 42.98651 148.26716 37990 ft 374 kts 230°
2026-05-01 09:04 42.94945 148.21728 37987 ft 374 kts 230°
2026-05-01 09:05 42.91240 148.16750 37978 ft 374 kts 230°
2026-05-01 09:05 42.87535 148.11780 37983 ft 374 kts 230°
2026-05-01 09:06 42.83824 148.06810 37983 ft 374 kts 230°
2026-05-01 09:06 42.80108 148.01843 37976 ft 374 kts 230°
2026-05-01 09:07 42.76387 147.96878 37968 ft 374 kts 229°
2026-05-01 09:07 42.72691 147.91956 37971 ft 374 kts 229°
2026-05-01 09:08 42.68975 147.87015 37966 ft 374 kts 229°
2026-05-01 09:08 42.65257 147.82080 37967 ft 373 kts 229°
2026-05-01 09:09 42.61542 147.77159 37960 ft 373 kts 229°
2026-05-01 09:09 42.57830 147.72249 37932 ft 372 kts 229°
2026-05-01 09:10 42.54120 147.67350 37947 ft 372 kts 229°
2026-05-01 09:10 42.50405 147.62454 37953 ft 373 kts 228°
2026-05-01 09:11 42.46688 147.57562 37948 ft 373 kts 228°
2026-05-01 09:11 42.42960 147.52663 37946 ft 374 kts 228°
2026-05-01 09:12 42.39225 147.47767 37942 ft 374 kts 228°
2026-05-01 09:12 42.35488 147.42870 37937 ft 374 kts 228°
2026-05-01 09:13 42.31749 147.37974 37934 ft 374 kts 228°
2026-05-01 09:13 42.28006 147.33079 37934 ft 374 kts 228°
2026-05-01 09:14 42.24266 147.28196 37931 ft 374 kts 228°
2026-05-01 09:14 42.20519 147.23313 37931 ft 374 kts 228°
2026-05-01 09:15 42.16773 147.18440 37919 ft 374 kts 227°
2026-05-01 09:15 42.13025 147.13572 37934 ft 374 kts 227°
2026-05-01 09:16 42.09279 147.08715 37917 ft 374 kts 227°
2026-05-01 09:17 42.03655 147.01439 37910 ft 374 kts 227°
2026-05-01 09:17 41.98058 146.94215 37906 ft 373 kts 227°
2026-05-01 09:18 41.92434 146.86975 37899 ft 373 kts 226°
2026-05-01 09:19 41.86816 146.79759 37875 ft 372 kts 227°
2026-05-01 09:20 41.81196 146.72551 37894 ft 373 kts 226°
2026-05-01 09:21 41.73682 146.62941 37892 ft 374 kts 226°
2026-05-01 09:21 41.68029 146.55733 37871 ft 374 kts 226°
2026-05-01 09:22 41.60478 146.46131 37875 ft 374 kts 225°
2026-05-01 09:23 41.54810 146.38948 37849 ft 374 kts 225°
2026-05-01 09:24 41.49146 146.31786 37848 ft 374 kts 225°
2026-05-01 09:25 41.41607 146.22281 37844 ft 374 kts 225°
2026-05-01 09:26 41.35929 146.15144 37836 ft 374 kts 225°
2026-05-01 09:26 41.30246 146.08018 37830 ft 374 kts 224°
2026-05-01 09:27 41.24562 146.00910 37821 ft 374 kts 224°
2026-05-01 09:28 41.20770 145.96178 37819 ft 374 kts 224°
2026-05-01 09:28 41.16983 145.91460 37806 ft 373 kts 224°
2026-05-01 09:29 41.11290 145.84381 37806 ft 374 kts 224°
2026-05-01 09:30 41.05591 145.77313 37797 ft 374 kts 224°
2026-05-01 09:30 40.99882 145.70249 37791 ft 375 kts 223°
2026-05-01 09:31 40.96067 145.65539 37790 ft 375 kts 223°
2026-05-01 09:32 40.90346 145.58489 37780 ft 375 kts 223°
2026-05-01 09:32 40.84620 145.51450 37744 ft 375 kts 223°
2026-05-01 09:33 40.80798 145.46764 37754 ft 375 kts 223°
2026-05-01 09:34 40.75082 145.39768 37756 ft 376 kts 222°
2026-05-01 09:34 40.69293 145.32699 37747 ft 377 kts 222°
2026-05-01 09:35 40.63546 145.25700 37749 ft 377 kts 222°
2026-05-01 09:36 40.59693 145.21016 37743 ft 377 kts 222°
2026-05-01 09:36 40.55837 145.16335 37731 ft 377 kts 221°
2026-05-01 09:37 40.51977 145.11659 37740 ft 377 kts 221°
2026-05-01 09:37 40.46182 145.04649 37727 ft 378 kts 222°
2026-05-01 09:38 40.41006 144.98405 37719 ft 378 kts 221°
2026-05-01 09:39 40.34543 144.90642 37714 ft 379 kts 221°
2026-05-01 09:39 40.30647 144.85970 37707 ft 380 kts 221°
2026-05-01 09:40 40.25457 144.79753 37696 ft 380 kts 220°
2026-05-01 09:41 40.21554 144.75090 37695 ft 380 kts 220°
2026-05-01 09:41 40.15685 144.68089 37683 ft 380 kts 220°
2026-05-01 09:42 40.11769 144.63427 37685 ft 381 kts 220°
2026-05-01 09:43 40.03895 144.54079 37673 ft 384 kts 219°
2026-05-01 09:43 39.99937 144.49390 37660 ft 385 kts 219°
2026-05-01 09:44 39.93983 144.42351 37644 ft 386 kts 219°
2026-05-01 09:45 39.90007 144.37660 37637 ft 385 kts 219°
2026-05-01 09:45 39.84044 144.30641 37594 ft 385 kts 219°
2026-05-01 09:46 39.80071 144.25972 37624 ft 385 kts 219°
2026-05-01 09:46 39.76093 144.21306 37613 ft 385 kts 219°
2026-05-01 09:47 39.72116 144.16650 37601 ft 385 kts 219°
2026-05-01 09:47 39.68131 144.11990 37602 ft 386 kts 219°
2026-05-01 09:48 39.64140 144.07331 37594 ft 386 kts 218°
2026-05-01 09:48 39.60144 144.02675 37584 ft 386 kts 218°
2026-05-01 09:49 39.56178 143.98060 37583 ft 386 kts 218°
2026-05-01 09:49 39.52174 143.93409 37596 ft 386 kts 218°
2026-05-01 09:50 39.48178 143.88772 37560 ft 386 kts 218°
2026-05-01 09:50 39.44180 143.84144 37570 ft 385 kts 218°
2026-05-01 09:51 39.40184 143.79525 37552 ft 385 kts 218°
2026-05-01 09:51 39.36188 143.74911 37550 ft 385 kts 218°
2026-05-01 09:52 39.32197 143.70313 37530 ft 384 kts 218°
2026-05-01 09:52 39.28212 143.65728 37538 ft 383 kts 218°
2026-05-01 09:53 39.24237 143.61161 37527 ft 382 kts 217°
2026-05-01 09:53 39.20268 143.56609 37508 ft 382 kts 217°
2026-05-01 09:54 39.16297 143.52060 37512 ft 382 kts 218°
2026-05-01 09:54 39.12325 143.47520 37519 ft 383 kts 218°
2026-05-01 09:55 39.08336 143.42966 37543 ft 384 kts 217°
2026-05-01 09:55 39.04337 143.38409 37523 ft 384 kts 217°
2026-05-01 09:56 39.00338 143.33857 37500 ft 384 kts 217°
2026-05-01 09:56 38.96341 143.29314 37495 ft 383 kts 217°
2026-05-01 09:57 38.92346 143.24780 37502 ft 383 kts 217°
2026-05-01 09:57 38.88508 143.20094 37490 ft 384 kts 220°
2026-05-01 09:58 38.84776 143.15195 37479 ft 383 kts 220°
2026-05-01 09:58 38.81052 143.10315 37479 ft 382 kts 220°
2026-05-01 09:59 38.77322 143.05442 37481 ft 383 kts 220°
2026-05-01 09:59 38.73595 143.00584 37467 ft 382 kts 219°
2026-05-01 10:00 38.69865 142.95729 37471 ft 382 kts 219°
2026-05-01 10:00 38.66134 142.90881 37496 ft 382 kts 219°
2026-05-01 10:01 38.62401 142.86039 37460 ft 382 kts 219°
2026-05-01 10:01 38.58668 142.81203 37446 ft 381 kts 219°
2026-05-01 10:02 38.54966 142.76415 37443 ft 381 kts 219°
2026-05-01 10:02 38.51244 142.71609 37425 ft 381 kts 219°
2026-05-01 10:03 38.47527 142.66816 37424 ft 379 kts 219°
2026-05-01 10:03 38.43816 142.62039 37433 ft 379 kts 219°
2026-05-01 10:04 38.40108 142.57272 37435 ft 378 kts 219°
2026-05-01 10:04 38.36399 142.52511 37428 ft 378 kts 219°
2026-05-01 10:05 38.32684 142.47750 37429 ft 379 kts 218°
2026-05-01 10:05 38.28983 142.42967 37416 ft 379 kts 219°
2026-05-01 10:06 38.25296 142.38161 37410 ft 379 kts 219°
2026-05-01 10:06 38.21609 142.33364 37413 ft 379 kts 219°
2026-05-01 10:07 38.17920 142.28576 37418 ft 379 kts 219°
2026-05-01 10:07 38.14246 142.23818 37415 ft 380 kts 218°
2026-05-01 10:08 38.08668 142.16606 37405 ft 380 kts 218°
2026-05-01 10:09 38.04960 142.11819 37407 ft 380 kts 218°
2026-05-01 10:09 38.01274 142.07071 37400 ft 380 kts 218°
2026-05-01 10:10 37.97556 142.02285 37410 ft 381 kts 218°
2026-05-01 10:10 37.91967 141.95101 37396 ft 382 kts 218°
2026-05-01 10:11 37.88236 141.90311 37391 ft 382 kts 218°
2026-05-01 10:11 37.84503 141.85524 37391 ft 382 kts 218°
2026-05-01 10:12 37.81399 141.81551 37393 ft 382 kts 218°
2026-05-01 10:13 37.75144 141.73560 37385 ft 384 kts 218°
2026-05-01 10:13 37.71384 141.68765 37389 ft 384 kts 218°
2026-05-01 10:14 37.65731 141.61571 37383 ft 385 kts 218°
2026-05-01 10:14 37.61958 141.56778 37382 ft 385 kts 218°
2026-05-01 10:15 37.58180 141.51986 37380 ft 385 kts 218°
2026-05-01 10:15 37.54400 141.47199 37382 ft 385 kts 218°
2026-05-01 10:16 37.50616 141.42415 37382 ft 385 kts 218°
2026-05-01 10:17 37.44943 141.35254 37382 ft 385 kts 218°
2026-05-01 10:17 37.41181 141.30516 36792 ft 387 kts 218°
2026-05-01 10:17 37.39292 141.28136 36286 ft 381 kts 218°
2026-05-01 10:18 37.35604 141.23492 35247 ft 370 kts 217°
2026-05-01 10:18 37.33794 141.21218 34730 ft 366 kts 217°
2026-05-01 10:18 37.32002 141.18969 34223 ft 362 kts 217°
2026-05-01 10:19 37.30231 141.16750 33711 ft 359 kts 217°
2026-05-01 10:19 37.28472 141.14549 33167 ft 356 kts 217°
2026-05-01 10:19 37.26726 141.12364 32647 ft 351 kts 217°
2026-05-01 10:20 37.23414 141.08210 32740 ft 331 kts 216°
2026-05-01 10:20 37.21760 141.06158 32755 ft 340 kts 216°
2026-05-01 10:20 37.18343 141.01903 32769 ft 349 kts 217°
2026-05-01 10:21 37.13362 140.95243 32762 ft 352 kts 221°
2026-05-01 10:22 37.08786 140.88099 32761 ft 349 kts 221°
2026-05-01 10:23 37.04217 140.80982 32804 ft 350 kts 221°
2026-05-01 10:23 36.99610 140.73846 32790 ft 353 kts 221°
2026-05-01 10:24 36.93424 140.64276 32768 ft 353 kts 221°
2026-05-01 10:25 36.90337 140.59509 32005 ft 353 kts 222°
2026-05-01 10:25 36.87246 140.54735 31257 ft 353 kts 223°
2026-05-01 10:26 36.85718 140.52383 30917 ft 353 kts 223°
2026-05-01 10:26 36.84177 140.50012 30587 ft 352 kts 223°
2026-05-01 10:26 36.81100 140.45279 29907 ft 349 kts 224°
2026-05-01 10:27 36.78050 140.40596 28826 ft 348 kts 224°
2026-05-01 10:27 36.74665 140.36530 27758 ft 330 kts 207°
2026-05-01 10:28 36.72661 140.35198 27331 ft 324 kts 203°
2026-05-01 10:28 36.68439 140.33740 26909 ft 307 kts 190°
2026-05-01 10:28 36.66320 140.33335 26914 ft 312 kts 190°
2026-05-01 10:29 36.61923 140.32461 26883 ft 324 kts 191°
2026-05-01 10:29 36.60449 140.32163 26885 ft 323 kts 191°
2026-05-01 10:30 36.56034 140.31278 26874 ft 320 kts 191°
2026-05-01 10:30 36.51663 140.30399 26871 ft 317 kts 191°
2026-05-01 10:31 36.47317 140.29528 26884 ft 316 kts 190°
2026-05-01 10:31 36.43231 140.27656 26879 ft 319 kts 213°
2026-05-01 10:32 36.40146 140.23603 26880 ft 334 kts 228°
2026-05-01 10:32 36.39145 140.20935 26876 ft 352 kts 245°
2026-05-01 10:32 36.38066 140.14917 26880 ft 360 kts 247°
2026-05-01 10:33 36.36913 140.08859 26873 ft 361 kts 246°
2026-05-01 10:33 36.35299 140.03154 26501 ft 335 kts 226°
2026-05-01 10:34 36.33764 140.01105 25960 ft 317 kts 216°
2026-05-01 10:34 36.32041 139.99475 25236 ft 307 kts 209°
2026-05-01 10:34 36.30185 139.98280 24477 ft 297 kts 198°
2026-05-01 10:35 36.26272 139.96960 23088 ft 286 kts 194°
2026-05-01 10:35 36.24339 139.96376 22112 ft 287 kts 194°
2026-05-01 10:35 36.22387 139.95770 21018 ft 291 kts 195°
2026-05-01 10:35 36.20416 139.95138 19979 ft 294 kts 196°
2026-05-01 10:36 36.16430 139.93827 18134 ft 298 kts 198°
2026-05-01 10:36 36.14423 139.93157 17178 ft 300 kts 198°
2026-05-01 10:36 36.12410 139.92481 16245 ft 300 kts 198°
2026-05-01 10:37 36.10398 139.91807 15384 ft 299 kts 197°
2026-05-01 10:37 36.06378 139.90507 13664 ft 299 kts 191°
2026-05-01 10:37 36.04292 139.90494 12814 ft 302 kts 174°
2026-05-01 10:38 36.02266 139.91151 12047 ft 301 kts 165°
2026-05-01 10:38 36.00318 139.92040 11328 ft 296 kts 164°
2026-05-01 10:38 35.98423 139.92898 10846 ft 283 kts 165°
2026-05-01 10:38 35.96610 139.93708 10397 ft 272 kts 165°
2026-05-01 10:39 35.94864 139.94481 9925 ft 262 kts 165°
2026-05-01 10:39 35.93291 139.95583 9550 ft 265 kts 144°
2026-05-01 10:39 35.92161 139.97364 9184 ft 273 kts 128°
2026-05-01 10:39 35.91291 139.99431 8894 ft 268 kts 127°
2026-05-01 10:40 35.90434 140.01447 8653 ft 260 kts 127°
2026-05-01 10:40 35.89616 140.03375 8545 ft 247 kts 126°
2026-05-01 10:40 35.88992 140.05371 8317 ft 245 kts 117°
2026-05-01 10:40 35.88509 140.07324 8026 ft 240 kts 117°
2026-05-01 10:41 35.87857 140.09092 7713 ft 212 kts 147°
2026-05-01 10:41 35.86672 140.09937 7578 ft 195 kts 175°
2026-05-01 10:41 35.84013 140.09886 7078 ft 188 kts 199°
2026-05-01 10:42 35.82780 140.09476 6864 ft 179 kts 200°
2026-05-01 10:42 35.81603 140.09079 6631 ft 173 kts 200°
2026-05-01 10:42 35.80446 140.08693 6419 ft 171 kts 200°
2026-05-01 10:42 35.79303 140.08315 6232 ft 169 kts 200°
2026-05-01 10:43 35.78169 140.07943 6019 ft 167 kts 200°
2026-05-01 10:43 35.77058 140.07581 5839 ft 164 kts 200°
2026-05-01 10:43 35.75959 140.07224 5627 ft 162 kts 200°
2026-05-01 10:43 35.74892 140.06830 5412 ft 155 kts 211°
2026-05-01 10:44 35.74240 140.05813 5232 ft 162 kts 248°
2026-05-01 10:44 35.73981 140.04439 5059 ft 167 kts 244°
2026-05-01 10:44 35.73532 140.03123 4868 ft 166 kts 239°
2026-05-01 10:44 35.72976 140.01901 4686 ft 161 kts 233°
2026-05-01 10:45 35.72350 140.00797 4524 ft 155 kts 230°
2026-05-01 10:45 35.71679 139.99778 4360 ft 151 kts 227°
2026-05-01 10:45 35.70973 139.98810 4210 ft 154 kts 225°
2026-05-01 10:45 35.70238 139.97872 4029 ft 146 kts 223°
2026-05-01 10:46 35.69474 139.97163 3755 ft 132 kts 213°
2026-05-01 10:46 35.68702 139.96708 3558 ft 115 kts 208°
2026-05-01 10:46 35.67976 139.96389 3570 ft 110 kts 208°
2026-05-01 10:46 35.67219 139.96081 3459 ft 120 kts 204°
2026-05-01 10:47 35.66438 139.95798 3321 ft 114 kts 210°
2026-05-01 10:47 35.65775 139.95318 3181 ft 108 kts 221°
2026-05-01 10:47 35.65267 139.94638 3111 ft 110 kts 227°
2026-05-01 10:47 35.64696 139.94018 3045 ft 109 kts 221°
2026-05-01 10:48 35.64126 139.93441 3031 ft 104 kts 219°
2026-05-01 10:48 35.63552 139.92902 2915 ft 103 kts 220°
2026-05-01 10:48 35.63007 139.92341 2777 ft 101 kts 219°
2026-05-01 10:48 35.62460 139.91803 2662 ft 101 kts 222°
2026-05-01 10:49 35.61908 139.91194 2199 ft 104 kts 222°
2026-05-01 10:49 35.61407 139.90651 2143 ft 97 kts 222°
2026-05-01 10:49 35.60893 139.90091 2086 ft 101 kts 222°
2026-05-01 10:49 35.60365 139.89516 2011 ft 101 kts 222°
2026-05-01 10:50 35.59841 139.88947 1875 ft 104 kts 222°
2026-05-01 10:50 35.59303 139.88311 1531 ft 108 kts 225°
2026-05-01 10:50 35.58807 139.87668 1304 ft 104 kts 220°
2026-05-01 10:50 35.58269 139.87024 1251 ft 108 kts 219°
2026-05-01 10:51 35.57720 139.86366 1094 ft 116 kts 218°
2026-05-01 10:51 35.57156 139.85700 916 ft 112 kts 220°
2026-05-01 10:51 35.56568 139.85055 752 ft 114 kts 219°
2026-05-01 10:51 35.55961 139.84369 573 ft 122 kts 223°
2026-05-01 10:52 35.55366 139.83668 382 ft 113 kts 223°
2026-05-01 10:52 35.54797 139.83044 282 ft 118 kts 222°
2026-05-01 10:52 35.54201 139.82375 133 ft 109 kts 223°
2026-05-01 10:52 35.53667 139.81762 51 ft 101 kts 221°
2026-05-01 10:53 35.53212 139.81251 28 ft 70 kts 222°
2026-05-01 10:53 35.52985 139.80998 28 ft 25 kts 222°
2026-05-01 10:53 35.52889 139.80891 28 ft 18 kts 222°
2026-05-01 10:53 35.52805 139.80778 28 ft 18 kts 236°
2026-05-01 10:54 35.52745 139.80643 28 ft 18 kts 244°
2026-05-01 10:54 35.52699 139.80501 28 ft 18 kts 253°
2026-05-01 10:54 35.52726 139.80360 28 ft 18 kts 312°
2026-05-01 10:54 35.52822 139.80368 28 ft 15 kts 38°
2026-05-01 10:55 35.52902 139.80451 28 ft 15 kts 41°
2026-05-01 10:55 35.52964 139.80522 28 ft 10 kts 42°
2026-05-01 10:55 35.53018 139.80581 28 ft 11 kts 37°
2026-05-01 10:55 35.53089 139.80586 28 ft 11 kts 341°
2026-05-01 10:56 35.53158 139.80541 28 ft 11 kts 328°
2026-05-01 10:56 35.53226 139.80492 27 ft 12 kts 332°
2026-05-01 10:56 35.53314 139.80432 28 ft 17 kts 330°
2026-05-01 10:56 35.53434 139.80346 28 ft 23 kts 329°
2026-05-01 10:57 35.53589 139.80236 27 ft 29 kts 330°
2026-05-01 10:57 35.53725 139.80137 28 ft 8 kts 324°
2026-05-01 10:57 35.53746 139.80049 29 ft 18 kts 252°
2026-05-01 10:57 35.53727 139.80002 28 ft 22 kts 241°
2026-05-01 10:58 35.53650 139.79839 29 ft 23 kts 239°
2026-05-01 10:58 35.53571 139.79671 28 ft 23 kts 240°
2026-05-01 10:58 35.53491 139.79502 28 ft 23 kts 240°
2026-05-01 10:58 35.53410 139.79334 28 ft 23 kts 239°
2026-05-01 10:59 35.53395 139.79154 28 ft 23 kts 304°
2026-05-01 10:59 35.53526 139.79047 28 ft 23 kts 330°
2026-05-01 10:59 35.53663 139.78948 28 ft 23 kts 330°
2026-05-01 10:59 35.53800 139.78849 28 ft 23 kts 328°
2026-05-01 11:00 35.53935 139.78752 27 ft 23 kts 329°
2026-05-01 11:00 35.54071 139.78654 28 ft 22 kts 331°
2026-05-01 11:00 35.54171 139.78580 29 ft 10 kts 309°
2026-05-01 11:00 35.54165 139.78503 28 ft 10 kts 239°
2026-05-01 11:01 35.54129 139.78427 28 ft 11 kts 240°
2026-05-01 11:01 35.54085 139.78337 28 ft 12 kts 239°
2026-05-01 11:01 35.54038 139.78241 29 ft 14 kts 241°
2026-05-01 11:01 35.53986 139.78127 28 ft 16 kts 240°
2026-05-01 11:02 35.53948 139.78029 28 ft 12 kts 262°
2026-05-01 11:02 35.53993 139.77949 28 ft 12 kts 326°
2026-05-01 11:02 35.54070 139.77892 28 ft 16 kts 329°
2026-05-01 11:02 35.54191 139.77805 28 ft 23 kts 329°
2026-05-01 11:03 35.54329 139.77708 28 ft 23 kts 329°
2026-05-01 11:03 35.54437 139.77615 28 ft 15 kts 297°
2026-05-01 11:03 35.54411 139.77493 28 ft 15 kts 240°
2026-05-01 11:03 35.54361 139.77390 28 ft 7 kts 239°
2026-05-01 11:04 35.54338 139.77380 28 ft 4 kts 177°
2026-05-01 11:04 35.54311 139.77391 28 ft 4 kts 154°
2026-05-01 11:04 35.54287 139.77406 28 ft 4 kts 152°
2026-05-01 11:04 35.54271 139.77417 28 ft 0 kts 151°
2026-05-01 11:05 35.54270 139.77417 28 ft 0 kts 151°